Location: Newark
(34.3481°N, 134.0494°E)
Time: 21:02:02
(UTC+00:00)

Vanguard 3 - Pass Details

Date: 21 January 2020
Orbit: 508 x 3263 km, 33.3° (Epoch: 25 February)

Event Time Altitude Azimuth Distance (km) Brightness Sun altitude
Rises 12:36:38 0° 272° (W) 7,009 12.5 -52.2°
Reaches altitude 10° 12:41:46 10° 272° (W) 5,743 11.9 -53.3°
Enters shadow 12:52:58 47° 270° (W) 2,881 9.8 -55.5°
